Regional Weather Roundup
Issued by NWS

Home | Current Version | Previous Version | Text Only | Print | Product List | Glossary On
Versions: 1 2 3 4 5 6 7 8 9 10 11 12 13 14 15 16 17 18 19 20 21 22 23 24 25 26 27 28 29 30 31 32 33 34 35 36 37 38 39 40 41 42 43 44 45 46 47 48 49 50
000
ASCA42 TJSJ 250610
RWRPR
PUERTO RICO/U.S. VIRGIN ISLANDS HOURLY WEATHER ROUNDUP
NATIONAL WEATHER SERVICE SAN JUAN PR
200 AM AST SAT APR 25 2015

PRZ001-004-250700-
PUERTO RICO

CITY           SKY/WX    TMP DP  RH WIND       PRES   REMARKS
SAN JUAN LMM   MOCLDY    81  72  74 S3        29.95F
AGUADILLA      CLOUDY    75  72  88 S3        29.96F
CEIBA          MOCLDY    77  72  83 SW3       29.97F
$$

PRZ006-007-250700-
U.S. VIRGIN ISLANDS

CITY           SKY/WX    TMP DP  RH WIND       PRES   REMARKS
CHARLOTTE AMA  PTCLDY    81  72  74 S5        29.95F
CHRISTIANSTED  PTCLDY    72  70  94 N6        29.96F
$$

HOURLY WEATHER ROUNDUP FOR THE NEWS MEDIA

CITY           SKY/WX    TMP DP  RH WIND       PRES   REMARKS
ORLANDO        FAIR      71  65  81 E5        29.97F
NEW YORK       FAIR      40  20  44 NW13      29.92F WCI  32
NEWARK         FAIR      39  21  48 NW7       29.93F WCI  34
CHICAGO        CLOUDY    41  37  86 NE13      29.89F
HARTFORD       FAIR      35  23  61 W5        29.78F WCI  31
BOSTON         FAIR      40  22  48 W13       29.77F WCI  32
DALLAS         MOCLDY    64  62  93 S8        29.69F
PHILADELPHIA   FAIR      43  20  39 NW8       29.98R
LOS ANGELES    MOCLDY    58  53  84 SW9       30.01F
WASHINGTON DC  FAIR      38  28  67 CALM      29.98R


USA.gov is the U.S. government's official web portal to all federal, state and local government web resources and services.